User: anonymous
Location: Ostrava
(49.8330°N, 18.2830°E)
Time: 01:17:03
(UTC+02:00)
Language:

Iridium 7 - Orbit

View from above orbital plane
View from above orbital plane
View from above satellite
View from above satellite

Ground track
Ground track

The orbit data is extracted from the following two-line orbital elements,

1 24793U 97020B   14211.50363784  .00000027  00000-0  26618-5 0  9108
2 24793 086.3947 038.9363 0002145 105.5428 308.5996 14.34214435902319
Epoch (UTC): 30 July 2014 12:05:14
Eccentricity: 0.0002145
inclination: 86.3947°
perigee height: 776 km
apogee height: 779 km
right ascension of ascending node: 38.9363°
argument of perigee: 105.5428°
revolutions per day: 14.34214435
mean anomaly at epoch: 308.5996°
orbit number at epoch: 90231

The dashed part of the orbit path shows where the satellite is in the earth's shadow,  

DLR